Location: Unspecified
(64.9000°N, 0.0000°E)
Time: 18:28:00
(UTC+00:00)

A-11 Canister half - Pass Details

Date: 24 June 2019
Orbit: 1526 x 1683 km, 47.3° (Epoch: 19 July)

Event Time Altitude Azimuth Distance (km) Brightness Sun altitude
Rises 08:14:00 0° 258° (WSW) 4,702 11.1 34.8°
Reaches altitude 10° 08:17:49 10° 245° (WSW) 3,706 10.8 35.2°
Maximum altitude 08:24:36 23° 198° (SSW) 2,786 10.7 35.9°
Drops below altitude 10° 08:31:22 10° 150° (SSE) 3,699 11.9 36.5°
Sets 08:35:11 0° 137° (SE) 4,691 12.4 36.9°
